| time (UTC) | temp F | wind direction | speed MPH | gust MPH | rain 1hr in | rain 24hr in | rain mn in | humidity % | barometer mb |
| 20260506014006 | 71 | 82 | 2.0 | 12.0 | 0.00 | 0.26 | 0.12 | 30 | 1011.7 |
| 20260506013024 | 72 | 126 | 3.0 | 8.0 | 0.00 | 0.26 | 0.12 | 31 | 1011.6 |
| 20260506012008 | 72 | 143 | 1.0 | 6.0 | 0.00 | 0.26 | 0.12 | 31 | 1011.5 |
| 20260506011528 | 73 | 141 | 2.0 | 9.0 | 0.00 | 0.26 | 0.12 | 31 | 1011.5 |
| 20260506011005 | 73 | 22 | 2.0 | 10.0 | 0.00 | 0.26 | 0.12 | 30 | 1011.4 |
| 20260506010012 | 74 | 75 | 2.0 | 9.0 | 0.00 | 0.26 | 0.12 | 29 | 1011.1 |
| 20260506005502 | 74 | 119 | 3.0 | 11.0 | 0.00 | 0.26 | 0.12 | 28 | 1011.1 |
| 20260506005002 | 75 | 101 | 5.0 | 11.0 | 0.00 | 0.26 | 0.12 | 27 | 1011.0 |
| 20260506004513 | 76 | 139 | 3.0 | 9.0 | 0.00 | 0.26 | 0.12 | 27 | 1011.0 |
| 20260506004003 | 76 | 125 | 1.0 | 9.0 | 0.00 | 0.26 | 0.12 | 26 | 1010.9 |
| 20260506003503 | 76 | 102 | 3.0 | 10.0 | 0.00 | 0.26 | 0.12 | 25 | 1010.9 |
| 20260506003006 | 76 | 146 | 3.0 | 10.0 | 0.00 | 0.26 | 0.12 | 25 | 1010.9 |
| 20260506002503 | 77 | 111 | 2.0 | 10.0 | 0.00 | 0.26 | 0.12 | 25 | 1010.9 |
| 20260506001517 | 76 | 263 | 3.0 | 11.0 | 0.00 | 0.26 | 0.12 | 25 | 1010.8 |
| 20260506000016 | 78 | 161 | 2.0 | 9.0 | 0.00 | 0.26 | 0.12 | 25 | 1010.6 |
| 20260505234522 | 78 | 79 | 4.0 | 10.0 | 0.00 | 0.26 | 0.12 | 24 | 1010.5 |
| 20260505233504 | 78 | 108 | 2.0 | 10.0 | 0.00 | 0.26 | 0.12 | 24 | 1010.5 |
| 20260505233025 | 78 | 144 | 3.0 | 7.0 | 0.00 | 0.26 | 0.12 | 22 | 1010.5 |
| 20260505232505 | 79 | 92 | 3.0 | 7.0 | 0.00 | 0.26 | 0.12 | 23 | 1010.5 |
| 20260505232003 | 79 | 87 | 3.0 | 10.0 | 0.00 | 0.26 | 0.12 | 24 | 1010.4 |
| 20260505231506 | 79 | 151 | 3.0 | 10.0 | 0.00 | 0.26 | 0.12 | 24 | 1010.6 |
| 20260505231004 | 80 | 133 | 2.0 | 6.0 | 0.00 | 0.26 | 0.12 | 23 | 1010.6 |
| 20260505230504 | 80 | 130 | 3.0 | 6.0 | 0.00 | 0.26 | 0.12 | 23 | 1010.5 |
| 20260505230009 | 80 | 100 | 2.0 | 12.0 | 0.00 | 0.26 | 0.12 | 25 | 1010.6 |
| 20260505225507 | 80 | 294 | 3.0 | 12.0 | 0.00 | 0.26 | 0.12 | 26 | 1010.6 |
| 20260505223505 | 79 | 3 | 4.0 | 11.0 | 0.00 | 0.26 | 0.12 | 26 | 1010.9 |
| 20260505223020 | 78 | 127 | 4.0 | 11.0 | 0.00 | 0.26 | 0.12 | 26 | 1011.0 |
| 20260505222505 | 79 | 146 | 1.0 | 8.0 | 0.00 | 0.26 | 0.12 | 27 | 1011.0 |
| 20260505222005 | 79 | 187 | 2.0 | 7.0 | 0.00 | 0.26 | 0.12 | 26 | 1011.0 |
| 20260505221504 | 79 | 122 | 2.0 | 12.0 | 0.00 | 0.26 | 0.12 | 26 | 1011.1 |
| 20260505221004 | 79 | 358 | 3.0 | 12.0 | 0.00 | 0.26 | 0.12 | 28 | 1011.1 |
| 20260505220504 | 79 | 148 | 2.0 | 10.0 | 0.00 | 0.26 | 0.12 | 26 | 1011.1 |
| 20260505220017 | 80 | 212 | 5.0 | 11.0 | 0.00 | 0.26 | 0.12 | 26 | 1011.1 |
| 20260505215505 | 80 | 170 | 2.0 | 11.0 | 0.00 | 0.26 | 0.12 | 27 | 1011.3 |
| 20260505214517 | 80 | 4 | 3.0 | 7.0 | 0.00 | 0.26 | 0.12 | 27 | 1011.4 |
| 20260505214007 | 80 | 13 | 2.0 | 7.0 | 0.00 | 0.26 | 0.12 | 27 | 1011.5 |
| 20260505213503 | 79 | 122 | 3.0 | 7.0 | 0.00 | 0.26 | 0.12 | 27 | 1011.6 |
| 20260505213021 | 79 | 132 | 3.0 | 6.0 | 0.00 | 0.26 | 0.12 | 27 | 1011.7 |
| 20260505212504 | 79 | 132 | 2.0 | 6.0 | 0.00 | 0.26 | 0.12 | 25 | 1011.6 |
| 20260505212007 | 79 | 188 | 3.0 | 7.0 | 0.00 | 0.26 | 0.12 | 24 | 1011.8 |
| 20260505211007 | 79 | 191 | 2.0 | 10.0 | 0.00 | 0.26 | 0.12 | 26 | 1011.8 |
| 20260505210511 | 79 | 130 | 3.0 | 14.0 | 0.00 | 0.26 | 0.12 | 26 | 1011.8 |
| 20260505210006 | 79 | 62 | 4.0 | 14.0 | 0.00 | 0.26 | 0.12 | 26 | 1011.9 |
| 20260505205509 | 79 | 127 | 3.0 | 16.0 | 0.00 | 0.26 | 0.12 | 25 | 1011.9 |
| 20260505205004 | 78 | 248 | 3.0 | 16.0 | 0.00 | 0.26 | 0.12 | 25 | 1011.9 |
| 20260505204510 | 78 | 214 | 4.0 | 11.0 | 0.00 | 0.26 | 0.12 | 26 | 1011.9 |
| 20260505204004 | 79 | 89 | 4.0 | 17.0 | 0.00 | 0.26 | 0.12 | 27 | 1011.9 |
| 20260505203504 | 79 | 120 | 6.0 | 17.0 | 0.00 | 0.26 | 0.12 | 26 | 1011.8 |
| 20260505203018 | 79 | 159 | 4.0 | 13.0 | 0.00 | 0.26 | 0.12 | 25 | 1011.9 |
| 20260505202508 | 79 | 243 | 3.0 | 14.0 | 0.00 | 0.26 | 0.12 | 28 | 1011.9 |
| 20260505202004 | 79 | 18 | 4.0 | 14.0 | 0.00 | 0.26 | 0.12 | 27 | 1011.9 |
| 20260505201522 | 79 | 152 | 2.0 | 14.0 | 0.00 | 0.26 | 0.12 | 31 | 1012.0 |
| 20260505201007 | 77 | 134 | 4.0 | 14.0 | 0.00 | 0.26 | 0.12 | 32 | 1012.1 |
| 20260505200509 | 77 | 108 | 4.0 | 11.0 | 0.00 | 0.26 | 0.12 | 31 | 1012.2 |
| 20260505195509 | 77 | 75 | 2.0 | 9.0 | 0.00 | 0.26 | 0.12 | 35 | 1012.3 |
| 20260505194520 | 76 | 24 | 3.0 | 9.0 | 0.00 | 0.26 | 0.12 | 36 | 1012.5 |
| 20260505194003 | 76 | 130 | 3.0 | 8.0 | 0.00 | 0.26 | 0.12 | 37 | 1012.5 |
| 20260505193504 | 74 | 129 | 2.0 | 6.0 | 0.00 | 0.26 | 0.12 | 43 | 1012.5 |
| 20260505192505 | 71 | 135 | 1.0 | 4.0 | 0.00 | 0.26 | 0.12 | 49 | 1012.6 |
| 20260505192006 | 71 | 150 | 1.0 | 4.0 | 0.00 | 0.26 | 0.12 | 51 | 1012.6 |
| 20260505191523 | 70 | 199 | 2.0 | 4.0 | 0.00 | 0.26 | 0.12 | 50 | 1012.6 |
| 20260505191004 | 71 | 161 | 2.0 | 4.0 | 0.00 | 0.26 | 0.12 | 50 | 1012.8 |
| 20260505190506 | 71 | 150 | 2.0 | 5.0 | 0.00 | 0.26 | 0.12 | 50 | 1012.8 |
| 20260505190025 | 70 | 203 | 1.0 | 7.0 | 0.00 | 0.26 | 0.12 | 51 | 1012.8 |
| 20260505185509 | 70 | 252 | 3.0 | 7.0 | 0.00 | 0.26 | 0.12 | 51 | 1012.8 |
| 20260505185007 | 71 | 226 | 4.0 | 6.0 | 0.00 | 0.26 | 0.12 | 50 | 1013.0 |
| 20260505184527 | 71 | 195 | 3.0 | 7.0 | 0.00 | 0.26 | 0.12 | 50 | 1013.0 |
| 20260505184006 | 71 | 188 | 3.0 | 7.0 | 0.00 | 0.26 | 0.12 | 51 | 1013.1 |
| 20260505183508 | 71 | 155 | 3.0 | 7.0 | 0.00 | 0.26 | 0.12 | 51 | 1013.2 |
| 20260505183033 | 71 | 224 | 3.0 | 7.0 | 0.00 | 0.26 | 0.12 | 51 | 1013.3 |
| 20260505182503 | 70 | 171 | 1.0 | 4.0 | 0.00 | 0.26 | 0.12 | 53 | 1013.4 |
| 20260505182004 | 70 | 146 | 1.0 | 3.0 | 0.00 | 0.26 | 0.12 | 52 | 1013.5 |
| 20260505181508 | 70 | 182 | 1.0 | 2.0 | 0.00 | 0.26 | 0.12 | 52 | 1013.6 |
| 20260505181005 | 69 | 84 | 1.0 | 2.0 | 0.00 | 0.26 | 0.12 | 53 | 1013.6 |
| 20260505180504 | 68 | 110 | 0.0 | 6.0 | 0.00 | 0.26 | 0.12 | 55 | 1013.6 |
| 20260505180021 | 68 | 112 | 1.0 | 6.0 | 0.00 | 0.26 | 0.12 | 54 | 1013.7 |
| 20260505175504 | 68 | 137 | 0.0 | 4.0 | 0.00 | 0.26 | 0.12 | 56 | 1013.7 |
| 20260505175004 | 68 | 135 | 1.0 | 4.0 | 0.00 | 0.26 | 0.12 | 55 | 1013.7 |
| 20260505174523 | 68 | 131 | 1.0 | 6.0 | 0.00 | 0.26 | 0.12 | 56 | 1013.7 |
| 20260505174009 | 69 | 155 | 2.0 | 6.0 | 0.00 | 0.26 | 0.12 | 53 | 1013.8 |
| 20260505173506 | 69 | 164 | 1.0 | 2.0 | 0.00 | 0.26 | 0.12 | 54 | 1013.8 |
| 20260505173022 | 69 | 199 | 1.0 | 5.0 | 0.00 | 0.26 | 0.12 | 54 | 1013.8 |
| 20260505172512 | 69 | 144 | 1.0 | 5.0 | 0.00 | 0.26 | 0.12 | 53 | 1013.8 |
| 20260505172007 | 68 | 131 | 0.0 | 2.0 | 0.00 | 0.26 | 0.12 | 59 | 1013.8 |
| 20260505171526 | 68 | 192 | 1.0 | 4.0 | 0.00 | 0.26 | 0.12 | 57 | 1013.9 |
| 20260505171014 | 68 | 150 | 1.0 | 4.0 | 0.00 | 0.26 | 0.12 | 59 | 1013.8 |
| 20260505170505 | 68 | 157 | 0.0 | 2.0 | 0.00 | 0.26 | 0.12 | 61 | 1013.8 |
| 20260505170010 | 68 | 152 | 1.0 | 3.0 | 0.00 | 0.26 | 0.12 | 59 | 1013.8 |
| 20260505165503 | 68 | 212 | 1.0 | 3.0 | 0.00 | 0.26 | 0.12 | 59 | 1013.7 |
| 20260505165004 | 68 | 165 | 1.0 | 3.0 | 0.00 | 0.26 | 0.12 | 60 | 1013.7 |
| 20260505164516 | 68 | 315 | 2.0 | 3.0 | 0.00 | 0.26 | 0.12 | 62 | 1013.7 |
| 20260505164004 | 67 | 232 | 1.0 | 3.0 | 0.00 | 0.26 | 0.12 | 62 | 1013.6 |
| 20260505163505 | 66 | 217 | 0.0 | 2.0 | 0.00 | 0.26 | 0.12 | 66 | 1013.6 |
| 20260505163019 | 65 | 229 | 0.0 | 2.0 | 0.00 | 0.26 | 0.12 | 67 | 1013.7 |
| 20260505162503 | 65 | 228 | 1.0 | 2.0 | 0.00 | 0.26 | 0.12 | 67 | 1013.8 |
| 20260505162003 | 65 | 176 | 0.0 | 0.0 | 0.00 | 0.26 | 0.12 | 70 | 1013.8 |
| 20260505161504 | 64 | 176 | 0.0 | 0.0 | 0.00 | 0.26 | 0.12 | 70 | 1013.9 |
| 20260505161004 | 65 | 176 | 0.0 | 0.0 | 0.00 | 0.26 | 0.12 | 71 | 1013.9 |
| 20260505160503 | 64 | 176 | 0.0 | 1.0 | 0.00 | 0.26 | 0.12 | 71 | 1014.0 |
| 20260505152502 | 64 | 44 | 0.0 | 2.0 | 0.00 | 0.26 | 0.12 | 77 | 1013.6 |
| 20260505152002 | 64 | 162 | 0.0 | 1.0 | 0.00 | 0.26 | 0.12 | 79 | 1013.6 |
| 20260505151503 | 63 | 161 | 0.0 | 1.0 | 0.00 | 0.26 | 0.12 | 78 | 1013.6 |
| 20260505151003 | 63 | 162 | 0.0 | 1.0 | 0.00 | 0.26 | 0.12 | 77 | 1013.6 |
| 20260505150503 | 63 | 162 | 0.0 | 1.0 | 0.00 | 0.26 | 0.12 | 76 | 1013.6 |
| 20260505140503 | 61 | 217 | 0.0 | 1.0 | 0.00 | 0.26 | 0.12 | 86 | 1013.3 |
| 20260505125003 | 59 | 227 | 0.0 | 2.0 | 0.01 | 0.26 | 0.12 | 90 | 1012.5 |
| 20260505124506 | 59 | 229 | 1.0 | 2.0 | 0.01 | 0.26 | 0.12 | 90 | 1012.4 |
| 20260505124005 | 59 | 220 | 1.0 | 1.0 | 0.01 | 0.26 | 0.12 | 90 | 1012.4 |
| 20260505123502 | 59 | 219 | 0.0 | 1.0 | 0.01 | 0.26 | 0.12 | 90 | 1012.4 |
| 20260505123010 | 59 | 219 | 1.0 | 1.0 | 0.01 | 0.26 | 0.12 | 90 | 1012.5 |
| 20260505122504 | 58 | 220 | 0.0 | 1.0 | 0.01 | 0.26 | 0.12 | 90 | 1012.4 |
| 20260505122007 | 58 | 220 | 0.0 | 1.0 | 0.01 | 0.26 | 0.12 | 90 | 1012.5 |
| 20260505121508 | 58 | 220 | 0.0 | 1.0 | 0.01 | 0.26 | 0.12 | 90 | 1012.5 |
| 20260505121004 | 58 | 221 | 0.0 | 1.0 | 0.01 | 0.26 | 0.12 | 90 | 1012.3 |
| 20260505120504 | 58 | 221 | 0.0 | 1.0 | 0.00 | 0.25 | 0.11 | 90 | 1012.1 |
| 20260505115502 | 59 | 221 | 0.0 | 2.0 | 0.01 | 0.25 | 0.11 | 89 | 1012.4 |
| 20260505115002 | 59 | 222 | 0.0 | 3.0 | 0.01 | 0.25 | 0.11 | 89 | 1012.1 |
| 20260505114004 | 59 | 223 | 2.0 | 3.0 | 0.01 | 0.25 | 0.11 | 88 | 1012.1 |
| 20260505113503 | 58 | 214 | 0.0 | 2.0 | 0.01 | 0.25 | 0.11 | 89 | 1012.2 |
| 20260505113006 | 58 | 195 | 0.0 | 2.0 | 0.01 | 0.25 | 0.11 | 89 | 1012.3 |
| 20260505112503 | 58 | 229 | 0.0 | 2.0 | 0.01 | 0.25 | 0.11 | 89 | 1012.6 |
| 20260505112003 | 58 | 231 | 1.0 | 3.0 | 0.01 | 0.25 | 0.11 | 88 | 1012.5 |
| 20260505111511 | 58 | 283 | 1.0 | 4.0 | 0.01 | 0.25 | 0.11 | 88 | 1012.5 |
| 20260505111006 | 59 | 233 | 1.0 | 4.0 | 0.02 | 0.25 | 0.11 | 88 | 1012.4 |
| 20260505110505 | 59 | 255 | 1.0 | 3.0 | 0.02 | 0.25 | 0.11 | 88 | 1012.4 |
| 20260505102003 | 59 | 257 | 2.0 | 6.0 | 0.03 | 0.24 | 0.10 | 89 | 1012.9 |
| 20260505101509 | 59 | 229 | 3.0 | 6.0 | 0.04 | 0.24 | 0.10 | 89 | 1013.3 |
| 20260505101003 | 59 | 226 | 2.0 | 7.0 | 0.03 | 0.23 | 0.09 | 89 | 1013.6 |
| 20260505100503 | 59 | 217 | 2.0 | 7.0 | 0.03 | 0.23 | 0.09 | 89 | 1013.7 |
| 20260505100012 | 59 | 263 | 3.0 | 7.0 | 0.03 | 0.23 | 0.09 | 89 | 1013.6 |
| 20260505095503 | 59 | 236 | 3.0 | 5.0 | 0.03 | 0.23 | 0.09 | 89 | 1013.6 |
| 20260505095006 | 59 | 241 | 2.0 | 5.0 | 0.04 | 0.23 | 0.09 | 89 | 1013.8 |
| 20260505094512 | 59 | 240 | 2.0 | 5.0 | 0.04 | 0.23 | 0.09 | 89 | 1013.8 |
| 20260505094006 | 59 | 241 | 2.0 | 6.0 | 0.04 | 0.23 | 0.09 | 89 | 1013.9 |
| 20260505093504 | 59 | 214 | 1.0 | 11.0 | 0.04 | 0.23 | 0.09 | 89 | 1014.0 |
| 20260505093014 | 59 | 224 | 3.0 | 11.0 | 0.03 | 0.22 | 0.08 | 89 | 1013.9 |
| 20260505092504 | 59 | 229 | 5.0 | 9.0 | 0.02 | 0.21 | 0.07 | 88 | 1013.9 |
| 20260505092005 | 59 | 274 | 5.0 | 12.0 | 0.03 | 0.21 | 0.07 | 88 | 1014.1 |
| 20260505091513 | 59 | 264 | 5.0 | 12.0 | 0.02 | 0.20 | 0.06 | 88 | 1014.1 |
| 20260505091004 | 59 | 266 | 5.0 | 10.0 | 0.02 | 0.20 | 0.06 | 88 | 1014.0 |
| 20260505090009 | 59 | 248 | 5.0 | 11.0 | 0.02 | 0.20 | 0.06 | 88 | 1014.0 |
| 20260505085504 | 59 | 284 | 4.0 | 10.0 | 0.03 | 0.20 | 0.06 | 89 | 1014.1 |
| 20260505085003 | 59 | 288 | 4.0 | 7.0 | 0.02 | 0.19 | 0.05 | 90 | 1014.3 |
| 20260505084533 | 59 | 245 | 4.0 | 8.0 | 0.03 | 0.19 | 0.05 | 90 | 1014.4 |
| 20260505084004 | 59 | 267 | 4.0 | 9.0 | 0.03 | 0.19 | 0.05 | 90 | 1014.4 |
| 20260505083503 | 60 | 239 | 3.0 | 9.0 | 0.04 | 0.19 | 0.05 | 90 | 1014.6 |
| 20260505083014 | 60 | 269 | 3.0 | 7.0 | 0.04 | 0.19 | 0.05 | 89 | 1015.0 |
| 20260505082506 | 60 | 287 | 2.0 | 5.0 | 0.04 | 0.19 | 0.05 | 89 | 1015.2 |
| 20260505082004 | 60 | 259 | 2.0 | 5.0 | 0.04 | 0.18 | 0.04 | 89 | 1015.5 |
| 20260505081519 | 60 | 224 | 2.0 | 5.0 | 0.04 | 0.18 | 0.04 | 89 | 1015.5 |
| 20260505081005 | 60 | 267 | 3.0 | 6.0 | 0.04 | 0.18 | 0.04 | 90 | 1015.4 |
| 20260505080504 | 60 | 259 | 2.0 | 6.0 | 0.04 | 0.18 | 0.04 | 89 | 1015.5 |
| 20260505080011 | 60 | 251 | 2.0 | 4.0 | 0.04 | 0.18 | 0.04 | 89 | 1015.6 |
| 20260505075504 | 60 | 224 | 1.0 | 2.0 | 0.04 | 0.17 | 0.03 | 89 | 1015.9 |
| 20260505074514 | 60 | 224 | 1.0 | 2.0 | 0.03 | 0.16 | 0.02 | 89 | 1016.0 |
| 20260505074003 | 60 | 223 | 1.0 | 3.0 | 0.03 | 0.16 | 0.02 | 88 | 1016.1 |
| 20260505073504 | 60 | 224 | 2.0 | 3.0 | 0.03 | 0.15 | 0.01 | 88 | 1016.1 |
| 20260505073016 | 60 | 220 | 0.0 | 3.0 | 0.03 | 0.15 | 0.01 | 88 | 1016.3 |
| 20260505072503 | 60 | 221 | 1.0 | 3.0 | 0.04 | 0.15 | 0.01 | 88 | 1016.1 |
| 20260505072012 | 60 | 222 | 1.0 | 3.0 | 0.03 | 0.14 | 0.00 | 88 | 1016.0 |
| 20260505071519 | 60 | 210 | 1.0 | 2.0 | 0.04 | 0.14 | 0.00 | 89 | 1016.1 |
| 20260505071004 | 60 | 253 | 1.0 | 2.0 | 0.05 | 0.14 | 0.00 | 89 | 1016.0 |
| 20260505070506 | 60 | 212 | 0.0 | 2.0 | 0.06 | 0.14 | 0.00 | 89 | 1016.0 |
| 20260505070016 | 60 | 212 | 0.0 | 2.0 | 0.06 | 0.14 | 0.00 | 89 | 1016.0 |
| 20260505065509 | 60 | 212 | 0.0 | 4.0 | 0.06 | 0.13 | 0.13 | 88 | 1015.9 |
| 20260505065005 | 60 | 204 | 1.0 | 4.0 | 0.06 | 0.13 | 0.13 | 88 | 1015.8 |
| 20260505064519 | 60 | 210 | 0.0 | 2.0 | 0.06 | 0.13 | 0.13 | 88 | 1015.9 |
| 20260505064014 | 60 | 209 | 1.0 | 2.0 | 0.07 | 0.13 | 0.13 | 88 | 1015.9 |
| 20260505063023 | 60 | 215 | 1.0 | 3.0 | 0.06 | 0.12 | 0.12 | 86 | 1015.9 |
| 20260505062003 | 60 | 221 | 2.0 | 3.0 | 0.06 | 0.11 | 0.11 | 85 | 1015.9 |
| 20260505061007 | 60 | 212 | 1.0 | 4.0 | 0.05 | 0.09 | 0.09 | 84 | 1015.9 |
| 20260505060508 | 60 | 226 | 1.0 | 4.0 | 0.04 | 0.08 | 0.08 | 85 | 1015.8 |
| 20260505060016 | 60 | 226 | 1.0 | 3.0 | 0.05 | 0.08 | 0.08 | 84 | 1015.8 |
| 20260505055509 | 61 | 248 | 1.0 | 3.0 | 0.04 | 0.07 | 0.07 | 84 | 1015.8 |
| 20260505055009 | 60 | 238 | 1.0 | 3.0 | 0.04 | 0.07 | 0.07 | 83 | 1015.8 |
| 20260505054518 | 60 | 221 | 0.0 | 3.0 | 0.04 | 0.07 | 0.07 | 83 | 1015.8 |
| 20260505054011 | 60 | 194 | 1.0 | 4.0 | 0.04 | 0.06 | 0.06 | 84 | 1015.8 |
| 20260505053507 | 60 | 174 | 2.0 | 4.0 | 0.04 | 0.06 | 0.06 | 83 | 1015.8 |
| 20260505053022 | 60 | 180 | 0.0 | 2.0 | 0.04 | 0.06 | 0.06 | 82 | 1015.7 |
| 20260505051519 | 60 | 288 | 1.0 | 4.0 | 0.02 | 0.04 | 0.04 | 82 | 1015.6 |
| 20260505050506 | 61 | 223 | 1.0 | 2.0 | 0.02 | 0.04 | 0.04 | 81 | 1015.6 |
| 20260505041508 | 62 | 200 | 0.0 | 2.0 | 0.01 | 0.02 | 0.02 | 71 | 1015.9 |
| 20260505041004 | 62 | 200 | 0.0 | 2.0 | 0.01 | 0.02 | 0.02 | 68 | 1015.9 |
| 20260505040505 | 62 | 176 | 0.0 | 2.0 | 0.01 | 0.02 | 0.02 | 66 | 1015.9 |
| 20260505040014 | 62 | 149 | 1.0 | 3.0 | 0.00 | 0.01 | 0.01 | 66 | 1016.0 |
| 20260505035506 | 62 | 164 | 0.0 | 5.0 | 0.00 | 0.01 | 0.01 | 63 | 1015.8 |
| 20260505035003 | 62 | 260 | 1.0 | 5.0 | 0.00 | 0.01 | 0.01 | 64 | 1015.6 |
| 20260505034524 | 61 | 337 | 1.0 | 5.0 | 0.00 | 0.01 | 0.01 | 66 | 1015.5 |
| 20260505034008 | 61 | 306 | 1.0 | 7.0 | 0.00 | 0.01 | 0.01 | 65 | 1015.2 |
| 20260505033507 | 61 | 81 | 1.0 | 7.0 | 0.00 | 0.01 | 0.01 | 64 | 1015.0 |
| 20260505033005 | 61 | 223 | 1.0 | 10.0 | 0.00 | 0.01 | 0.01 | 65 | 1014.8 |
| 20260505032502 | 61 | 307 | 3.0 | 10.0 | 0.00 | 0.01 | 0.01 | 65 | 1014.7 |
| 20260505032003 | 60 | 247 | 3.0 | 8.0 | 0.00 | 0.01 | 0.01 | 65 | 1014.6 |
| 20260505031506 | 60 | 222 | 3.0 | 11.0 | 0.00 | 0.01 | 0.01 | 65 | 1014.6 |
| 20260505031003 | 60 | 242 | 7.0 | 11.0 | 0.00 | 0.01 | 0.01 | 65 | 1014.6 |
| 20260505030503 | 60 | 243 | 6.0 | 11.0 | 0.00 | 0.01 | 0.01 | 67 | 1014.8 |
| 20260505030008 | 60 | 257 | 6.0 | 10.0 | 0.01 | 0.01 | 0.01 | 68 | 1015.2 |
| 20260505025503 | 60 | 249 | 6.0 | 9.0 | 0.01 | 0.01 | 0.01 | 67 | 1015.5 |
| 20260505025005 | 61 | 265 | 4.0 | 9.0 | 0.01 | 0.01 | 0.01 | 67 | 1015.3 |
| 20260505024512 | 61 | 352 | 4.0 | 10.0 | 0.01 | 0.01 | 0.01 | 66 | 1015.5 |
| 20260505024005 | 62 | 238 | 5.0 | 10.0 | 0.01 | 0.01 | 0.01 | 64 | 1015.6 |
| 20260505023507 | 62 | 259 | 4.0 | 11.0 | 0.01 | 0.01 | 0.01 | 61 | 1015.4 |
| 20260505023020 | 63 | 250 | 5.0 | 11.0 | 0.01 | 0.01 | 0.01 | 59 | 1015.5 |
| 20260505022505 | 64 | 248 | 2.0 | 7.0 | 0.01 | 0.01 | 0.01 | 52 | 1015.5 |
| 20260505022009 | 63 | 191 | 0.0 | 2.0 | 0.01 | 0.01 | 0.01 | 57 | 1015.5 |
| 20260505021523 | 63 | 186 | 0.0 | 2.0 | 0.01 | 0.01 | 0.01 | 55 | 1015.5 |
| 20260505021003 | 64 | 171 | 0.0 | 0.0 | 0.01 | 0.01 | 0.01 | 61 | 1015.6 |
| 20260505020502 | 65 | 156 | 0.0 | 3.0 | 0.01 | 0.01 | 0.01 | 55 | 1015.5 |
| 20260505020004 | 65 | 155 | 0.0 | 3.0 | 0.00 | 0.00 | 0.00 | 49 | 1015.5 |
| 20260505015507 | 66 | 186 | 0.0 | 3.0 | 0.00 | 0.00 | 0.00 | 48 | 1015.7 |
| 20260505015004 | 67 | 161 | 1.0 | 3.0 | 0.00 | 0.00 | 0.00 | 46 | 1015.6 |